C/2012 E1 ( Hill )

Japanese version
Home page
Updated on May 7, 2015

---------------------------------------------------------------------

* Profile

Discovery Date March 2, 2012
Magnitude 19.6 mag
Discoverer R. E. Hill (Mount Lemmon)

* Pictures

* Orbital Elements

Epoch 2011 July 18.0 TT = JDT 2455760.5
T 2011 July 4.31267 TT                                  MPC
q   7.5031121            (2000.0)            P               Q
z  +0.0002573      Peri.   48.89675     -0.20438920     -0.55088560
 +/-0.0000029      Node   286.30423     -0.93599120     +0.35200861
e   0.9980691      Incl.  122.53418     +0.28661040     +0.75671329
From 96 observations 2011 June 10-2013 June 9, mean residual 0".6.

* Magnitudes Graph

        m1 = 6.0 + 5 log d + 10.0 log r

---------------------------------------------------------------------

The orbital elements are published on M.P.E.C. 2013-M31.
The magnitudes graphs are made with Comet for Windows.

---------------------------------------------------------------------

Copyright(C) Seiichi Yoshida (comet@aerith.net). All rights reserved.